sat.trackr.live / text

‹ back to catalog

STARLINK-3110

NORAD 49420 · 2021-104N

PAYLOAD ACTIVE UNKNOWN

§ Identity

Operator
Country
US
Launch date
2021-11-13
Launch site
AFETR
Launch vehicle
Mass (kg)
RCS (m²)

Purposes: comms

External: N2YO · Heavens-Above · Gunter

§ Orbital elements

Epoch: 2026-05-25T00:13:36.102432Z

Period
95.44 min
Inclination
53.2150°
Eccentricity
0.0000939
Mean motion
15.08839867 rev/d
Perigee alt
539.1 km
Apogee alt
540.4 km
Semi-major
6,917.9 km
B*
3.1341e-5
RAAN
246.5068°
Arg perigee
86.0874°
Mean anomaly
274.0226°
Rev number
25,014

§ Raw data

STARLINK-31101 49420U 21104N   26145.00944563  .00000211  00000+0  31341-4 0  99952 49420  53.2150 246.5068 0000939  86.0874 274.0226 15.08839867250142

JSON: /api/v1/satellites/49420 · /tle

For live sub-satellite position, see the globe view (requires WebGL).

§ Visibility from observer

Set your observer location to see the next 7 days of passes ≥ 10°. The values pass through the URL so the page stays shareable.

No JS? Fill the form by hand. The geolocation button needs JavaScript.